FW6259 Weather Reports


time (UTC)temp
C
wind
direction
speed
KPH
gust
KPH
rain 1hr
cm
rain 24hr
cm
rain mn
cm
humidity
%
barometer
mb
20260906090057 10 69 0.0 0.0 0.00 0.00 0.00 87 1020.5
20260906084558 10 69 0.0 0.0 0.00 0.00 0.00 86 1020.6
20260906083104 11 65 0.0 1.6 0.00 0.00 0.00 85 1020.7
20260906081556 11 66 0.0 3.2 0.00 0.00 0.00 86 1020.6
20260906080047 11 69 0.0 4.8 0.00 0.00 0.00 86 1020.5
20260906074554 11 73 1.6 4.8 0.00 0.00 0.00 86 1020.6
20260906073043 11 115 0.0 3.2 0.00 0.00 0.00 85 1020.5
20260906071501 11 86 0.0 1.6 0.00 0.00 0.00 84 1020.4
20260906070047 11 318 0.0 1.6 0.00 0.00 0.00 84 1020.3
20260906064602 11 354 0.0 3.2 0.00 0.00 0.00 83 1020.2
20260906063052 12 340 1.6 3.2 0.00 0.00 0.00 81 1020.2
20260906061504 12 40 1.6 9.7 0.00 0.00 0.00 80 1019.9
20260906060133 12 356 3.2 16.1 0.00 0.00 0.00 78 1019.8
20260906054605 13 346 1.6 11.3 0.00 0.00 0.00 77 1019.6
20260906053059 13 317 4.8 12.9 0.00 0.00 0.00 75 1019.5
20260906051600 15 298 4.8 17.7 0.00 0.00 0.00 69 1019.4
20260906050003 15 112 4.8 20.9 0.00 0.00 0.00 63 1018.9
20260906044555 15 200 4.8 17.7 0.00 0.00 0.00 64 1018.7
20260906043050 15 252 6.4 17.7 0.00 0.00 0.00 65 1018.4
20260906041600 15 179 3.2 12.9 0.00 0.00 0.00 65 1018.1
20260906040046 16 146 6.4 19.3 0.00 0.00 0.00 64 1017.9
20260906034503 16 198 11.3 19.3 0.00 0.00 0.00 61 1017.8
20260906033055 17 203 8.0 22.5 0.00 0.00 0.00 59 1017.7
20260906031554 18 141 6.4 22.5 0.00 0.00 0.00 56 1017.4
20260906030058 18 162 9.7 20.9 0.00 0.00 0.00 54 1017.5
20260906024556 18 190 12.9 27.4 0.00 0.00 0.00 53 1017.4
20260906023051 18 229 12.9 25.7 0.00 0.00 0.00 53 1017.2
20260906021602 18 198 9.7 24.1 0.00 0.00 0.00 53 1017.0
20260906020051 19 240 12.9 22.5 0.00 0.00 0.00 53 1016.9
20260906014549 19 165 8.0 25.7 0.00 0.00 0.00 52 1016.9
20260906013059 19 286 12.9 27.4 0.00 0.00 0.00 51 1016.9
20260906011550 19 119 8.0 25.7 0.00 0.00 0.00 54 1016.7
20260906010002 19 245 14.5 29.0 0.00 0.00 0.00 54 1016.8
20260906004607 20 253 14.5 38.6 0.00 0.00 0.00 52 1017.0
20260906003056 20 265 12.9 37.0 0.00 0.00 0.00 53 1016.9
20260906001601 20 146 12.9 33.8 0.00 0.00 0.00 52 1016.9
20260906000058 20 159 12.9 27.4 0.00 0.00 0.00 52 1017.1
20260905234548 20 205 16.1 30.6 0.00 0.00 0.00 52 1017.0
20260905233057 20 214 17.7 30.6 0.00 0.00 0.00 53 1017.0
20260905231555 20 175 14.5 27.4 0.00 0.00 0.00 54 1017.3
20260905230157 19 169 11.3 29.0 0.00 0.00 0.00 55 1017.3
20260905224551 20 190 17.7 33.8 0.00 0.00 0.00 54 1017.2
20260905223101 20 141 14.5 32.2 0.00 0.00 0.00 54 1017.2
20260905221559 20 188 12.9 33.8 0.00 0.00 0.00 54 1017.3
20260905220047 20 176 9.7 30.6 0.00 0.00 0.00 55 1017.1
20260905214505 20 262 12.9 29.0 0.00 0.00 0.00 54 1017.2
20260905213055 18 193 12.9 29.0 0.00 0.00 0.00 56 1017.4
20260905211549 18 189 9.7 29.0 0.00 0.00 0.00 58 1017.4
20260905210001 18 178 17.7 32.2 0.00 0.00 0.00 58 1017.3
20260905204655 18 188 16.1 40.2 0.00 0.00 0.00 56 1017.2
20260905203046 19 229 17.7 38.6 0.00 0.00 0.00 56 1017.1
20260905201700 19 233 14.5 30.6 0.00 0.00 0.00 57 1017.0
20260905200115 19 187 16.1 32.2 0.00 0.00 0.00 55 1017.0
20260905194547 19 245 11.3 29.0 0.00 0.00 0.00 57 1016.9
20260905193101 20 201 16.1 33.8 0.00 0.00 0.00 56 1017.0
20260905191558 20 174 12.9 27.4 0.00 0.00 0.00 57 1016.9
20260905190149 19 229 11.3 29.0 0.00 0.00 0.00 57 1017.0
20260905184608 18 172 11.3 27.4 0.00 0.00 0.00 60 1017.1
20260905183050 18 226 11.3 22.5 0.00 0.00 0.00 62 1017.0
20260905181502 18 223 6.4 22.5 0.00 0.00 0.00 63 1017.1
20260905180059 17 189 11.3 24.1 0.00 0.00 0.00 65 1017.1
20260905174552 15 207 4.8 16.1 0.00 0.00 0.00 72 1017.2
20260905173000 11 204 0.0 3.2 0.00 0.00 0.00 83 1017.2
20260905171558 8 68 0.0 3.2 0.00 0.00 0.00 87 1017.4
20260905170049 7 97 0.0 3.2 0.00 0.00 0.00 89 1017.5
20260905164502 7 1 0.0 3.2 0.00 0.00 0.00 89 1017.3
20260905163054 7 85 0.0 6.4 0.00 0.00 0.00 89 1017.1
20260905161548 6 324 0.0 3.2 0.00 0.00 0.00 90 1017.1
20260905160001 6 309 0.0 3.2 0.00 0.00 0.00 90 1017.1
20260905154602 6 353 0.0 1.6 0.00 0.00 0.00 91 1017.1
20260905153050 6 357 0.0 4.8 0.00 0.00 0.00 91 1017.1
20260905151506 5 158 0.0 1.6 0.00 0.00 0.00 91 1017.2
20260905150049 4 349 0.0 1.6 0.00 0.00 0.00 92 1017.2
20260905144559 4 232 0.0 3.2 0.00 0.00 0.00 92 1017.7
20260905143051 3 357 0.0 3.2 0.00 0.00 0.00 91 1017.5
20260905141546 4 359 0.0 3.2 0.00 0.00 0.00 93 1017.4
20260905140057 3 302 0.0 1.6 0.00 0.00 0.00 91 1017.7
20260905134554 4 88 0.0 0.0 0.00 0.00 0.00 91 1017.5
20260905133043 4 195 0.0 1.6 0.00 0.00 0.00 91 1017.8
20260905131555 4 195 0.0 0.0 0.00 0.00 0.00 93 1017.8
20260905130101 4 195 0.0 3.2 0.00 0.00 0.00 91 1017.8
20260905124556 4 237 0.0 1.6 0.00 0.00 0.00 91 1017.9
20260905123102 5 46 0.0 1.6 0.00 0.00 0.00 89 1018.2
20260905121600 5 48 0.0 0.0 0.00 0.00 0.00 90 1018.4
20260905120050 5 49 0.0 3.2 0.00 0.00 0.00 89 1018.4
20260905114548 5 56 0.0 0.0 0.00 0.00 0.00 89 1018.3
20260905113055 5 79 0.0 0.0 0.00 0.00 0.00 89 1018.4
20260905111558 6 79 0.0 0.0 0.00 0.00 0.00 87 1018.6
20260905110049 6 88 0.0 0.0 0.00 0.00 0.00 86 1018.8
20260905104501 7 170 0.0 0.0 0.00 0.00 0.00 85 1018.7
20260905103059 7 172 0.0 0.0 0.00 0.00 0.00 82 1018.7
20260905101548 8 172 0.0 0.0 0.00 0.00 0.00 82 1018.8
20260905100106 8 167 0.0 3.2 0.00 0.00 0.00 80 1018.9
20260905094551 8 131 0.0 8.0 0.00 0.00 0.00 80 1019.0
20260905093045 8 247 1.6 4.8 0.00 0.00 0.00 81 1018.9
20260905091600 8 259 0.0 3.2 0.00 0.00 0.00 80 1018.9